Time,TemperatureF,DewpointF,PressureIn,WindDirection,WindDirectionDegrees,WindSpeedMPH,WindSpeedGustMPH,Humidity,HourlyPrecipIn,Conditions,Clouds,dailyrainin,SoftwareType,DateUTC
2013-07-15 00:10:00,69.8,57.9,30.23,ESE,122,0.0,0.0,66,0.00,,SKC,0.00,VWS V14.01,2013-07-15 05:10:00,
2013-07-15 00:15:00,69.8,58.4,30.23,ESE,122,0.0,0.0,67,0.00,,SKC,0.00,VWS V14.01,2013-07-15 05:15:00,
2013-07-15 00:20:00,69.6,58.2,30.23,ESE,122,0.0,0.0,67,0.00,,SKC,0.00,VWS V14.01,2013-07-15 05:20:00,
2013-07-15 00:25:00,69.6,58.6,30.23,ESE,122,0.0,0.0,68,0.00,,SKC,0.00,VWS V14.01,2013-07-15 05:25:00,
2013-07-15 00:30:00,70.2,58.3,30.23,SE,124,0.0,0.0,66,0.00,,SKC,0.00,VWS V14.01,2013-07-15 05:30:00,
2013-07-15 00:31:00,70.2,58.3,30.23,ESE,122,0.0,0.0,66,0.00,,SKC,0.00,VWS V14.01,2013-07-15 05:31:00,
2013-07-15 00:36:00,70.2,58.3,30.23,SE,124,0.0,0.0,66,0.00,,SKC,0.00,VWS V14.01,2013-07-15 05:36:00,
2013-07-15 00:37:00,70.0,58.1,30.23,SE,125,5.6,5.6,66,0.00,,SKC,0.00,VWS V14.01,2013-07-15 05:37:00,
2013-07-15 00:39:00,70.0,57.7,30.23,SE,124,0.0,0.0,65,0.00,,SKC,0.00,VWS V14.01,2013-07-15 05:39:00,
2013-07-15 00:40:00,70.0,57.7,30.23,ESE,113,0.0,4.8,65,0.00,,SKC,0.00,VWS V14.01,2013-07-15 05:40:00,
2013-07-15 00:41:00,70.0,58.1,30.23,SE,124,0.0,4.0,66,0.00,,SKC,0.00,VWS V14.01,2013-07-15 05:41:00,
2013-07-15 00:42:00,70.0,57.7,30.23,ESE,113,0.0,0.0,65,0.00,,SKC,0.00,VWS V14.01,2013-07-15 05:42:00,
2013-07-15 00:43:00,70.0,57.7,30.23,ESE,113,0.0,0.0,65,0.00,,SKC,0.00,VWS V14.01,2013-07-15 05:43:00,
2013-07-15 00:44:00,70.0,57.7,30.23,ESE,113,0.0,0.0,65,0.00,,SKC,0.00,VWS V14.01,2013-07-15 05:44:00,
2013-07-15 00:45:00,70.0,57.7,30.23,ESE,114,0.0,0.0,65,0.00,,SKC,0.00,VWS V14.01,2013-07-15 05:45:00,
2013-07-15 00:46:00,70.0,57.7,30.23,ESE,114,0.0,0.0,65,0.00,,SKC,0.00,VWS V14.01,2013-07-15 05:46:00,
2013-07-15 00:47:00,70.0,57.7,30.23,ESE,114,0.0,0.0,65,0.00,,SKC,0.00,VWS V14.01,2013-07-15 05:47:00,
2013-07-15 00:48:00,70.0,57.7,30.23,SE,125,0.0,5.6,65,0.00,,SKC,0.00,VWS V14.01,2013-07-15 05:48:00,
2013-07-15 00:49:00,70.0,57.7,30.23,ESE,114,0.0,0.0,65,0.00,,SKC,0.00,VWS V14.01,2013-07-15 05:49:00,
2013-07-15 00:50:00,70.0,57.7,30.23,ESE,123,5.6,5.6,65,0.00,,SKC,0.00,VWS V14.01,2013-07-15 05:50:00,
2013-07-15 00:51:00,70.0,57.7,30.23,ESE,123,4.8,5.6,65,0.00,,SKC,0.00,VWS V14.01,2013-07-15 05:51:00,
2013-07-15 00:52:00,70.0,57.3,30.23,SE,128,0.0,4.8,64,0.00,,SKC,0.00,VWS V14.01,2013-07-15 05:52:00,
2013-07-15 00:53:00,70.2,57.4,30.23,SE,128,0.0,0.0,64,0.00,,SKC,0.00,VWS V14.01,2013-07-15 05:53:00,
2013-07-15 00:54:00,70.2,57.4,30.23,SE,128,0.0,0.0,64,0.00,,SKC,0.00,VWS V14.01,2013-07-15 05:54:00,
2013-07-15 00:55:00,70.2,57.4,30.23,SE,128,0.0,0.0,64,0.00,,SKC,0.00,VWS V14.01,2013-07-15 05:55:00,
2013-07-15 00:56:00,70.0,57.3,30.23,SE,128,0.0,0.0,64,0.00,,SKC,0.00,VWS V14.01,2013-07-15 05:56:00,
2013-07-15 00:57:00,70.2,57.4,30.23,SE,128,0.0,0.0,64,0.00,,SKC,0.00,VWS V14.01,2013-07-15 05:57:00,
2013-07-15 00:58:00,70.0,57.3,30.23,SE,128,0.0,0.0,64,0.00,,SKC,0.00,VWS V14.01,2013-07-15 05:58:00,
2013-07-15 00:59:00,70.0,57.3,30.23,SE,128,0.0,0.0,64,0.00,,SKC,0.00,VWS V14.01,2013-07-15 05:59:00,
2013-07-15 01:12:00,70.0,57.3,30.23,SE,128,0.0,0.0,64,0.00,,SKC,0.00,VWS V14.01,2013-07-15 06:12:00,
2013-07-15 01:18:00,69.8,57.1,30.23,SE,128,0.0,0.0,64,0.00,,SKC,0.00,VWS V14.01,2013-07-15 06:18:00,
2013-07-15 01:23:00,69.6,57.3,30.26,SE,128,0.0,0.0,65,0.00,,SKC,0.00,VWS V14.01,2013-07-15 06:23:00,
2013-07-15 01:28:00,69.3,57.0,30.26,SE,128,0.0,0.0,65,0.00,,SKC,0.00,VWS V14.01,2013-07-15 06:28:00,
2013-07-15 01:34:00,68.9,56.7,30.26,SE,128,0.0,0.0,65,0.00,,SKC,0.00,VWS V14.01,2013-07-15 06:34:00,
2013-07-15 01:36:00,68.0,56.2,30.26,SE,128,0.0,0.0,66,0.00,,SKC,0.00,VWS V14.01,2013-07-15 06:36:00,
2013-07-15 01:39:00,68.5,56.7,30.26,SE,128,0.0,0.0,66,0.00,,SKC,0.00,VWS V14.01,2013-07-15 06:39:00,
2013-07-15 01:41:00,67.8,56.5,30.26,SE,128,0.0,0.0,67,0.00,,SKC,0.00,VWS V14.01,2013-07-15 06:41:00,
2013-07-15 01:42:00,67.8,56.5,30.26,SE,128,0.0,0.0,67,0.00,,SKC,0.00,VWS V14.01,2013-07-15 06:42:00,
2013-07-15 01:43:00,67.8,56.5,30.26,SE,128,0.0,0.0,67,0.00,,SKC,0.00,VWS V14.01,2013-07-15 06:43:00,
2013-07-15 01:44:00,68.2,56.4,30.26,SE,128,0.0,0.0,66,0.00,,SKC,0.00,VWS V14.01,2013-07-15 06:44:00,
2013-07-15 01:45:00,67.8,56.9,30.26,SE,128,0.0,0.0,68,0.00,,SKC,0.00,VWS V14.01,2013-07-15 06:45:00,
2013-07-15 01:46:00,67.8,56.9,30.26,SE,128,0.0,0.0,68,0.00,,SKC,0.00,VWS V14.01,2013-07-15 06:46:00,
2013-07-15 01:47:00,67.6,56.7,30.26,SE,128,0.0,0.0,68,0.00,,SKC,0.00,VWS V14.01,2013-07-15 06:47:00,
2013-07-15 01:48:00,67.6,56.7,30.26,SE,128,0.0,0.0,68,0.00,,SKC,0.00,VWS V14.01,2013-07-15 06:48:00,
2013-07-15 01:49:00,68.0,56.7,30.26,SE,128,0.0,0.0,67,0.00,,SKC,0.00,VWS V14.01,2013-07-15 06:49:00,
2013-07-15 01:50:00,67.6,56.7,30.26,SE,128,0.0,0.0,68,0.00,,SKC,0.00,VWS V14.01,2013-07-15 06:50:00,
2013-07-15 01:51:00,67.6,57.1,30.26,SE,128,0.0,0.0,69,0.00,,SKC,0.00,VWS V14.01,2013-07-15 06:51:00,
2013-07-15 01:52:00,67.6,57.1,30.26,SE,128,0.0,0.0,69,0.00,,SKC,0.00,VWS V14.01,2013-07-15 06:52:00,
2013-07-15 01:53:00,67.5,57.0,30.26,SE,128,0.0,0.0,69,0.00,,SKC,0.00,VWS V14.01,2013-07-15 06:53:00,
2013-07-15 01:54:00,67.5,57.0,30.26,East,94,0.0,0.0,69,0.00,,SKC,0.00,VWS V14.01,2013-07-15 06:54:00,
2013-07-15 01:55:00,67.5,57.0,30.26,East,94,0.0,0.0,69,0.00,,SKC,0.00,VWS V14.01,2013-07-15 06:55:00,
2013-07-15 01:56:00,67.5,57.3,30.26,East,94,0.0,0.0,70,0.00,,SKC,0.00,VWS V14.01,2013-07-15 06:56:00,
2013-07-15 01:57:00,67.5,57.3,30.26,East,94,0.0,0.0,70,0.00,,SKC,0.00,VWS V14.01,2013-07-15 06:57:00,
2013-07-15 01:58:00,67.6,57.5,30.26,East,94,0.0,0.0,70,0.00,,SKC,0.00,VWS V14.01,2013-07-15 06:58:00,
2013-07-15 01:59:00,67.5,57.3,30.26,East,94,0.0,0.0,70,0.00,,SKC,0.00,VWS V14.01,2013-07-15 06:59:00,
2013-07-15 02:00:00,67.5,57.3,30.26,East,94,0.0,0.0,70,0.00,,SKC,0.00,VWS V14.01,2013-07-15 07:00:00,
2013-07-15 02:01:00,67.5,57.3,30.26,East,94,0.0,0.0,70,0.00,,SKC,0.00,VWS V14.01,2013-07-15 07:01:00,
2013-07-15 02:12:00,67.5,57.3,30.26,East,94,0.0,0.0,70,0.00,,SKC,0.00,VWS V14.01,2013-07-15 07:12:00,
2013-07-15 02:17:00,67.3,57.2,30.26,East,94,0.0,0.0,70,0.00,,SKC,0.00,VWS V14.01,2013-07-15 07:17:00,
2013-07-15 02:23:00,67.1,57.0,30.26,East,94,0.0,0.0,70,0.00,,SKC,0.00,VWS V14.01,2013-07-15 07:23:00,
2013-07-15 02:28:00,67.3,58.0,30.26,East,94,0.0,0.0,72,0.00,,SKC,0.00,VWS V14.01,2013-07-15 07:28:00,
2013-07-15 02:33:00,67.5,58.1,30.26,East,94,0.0,0.0,72,0.00,,SKC,0.00,VWS V14.01,2013-07-15 07:33:00,
2013-07-15 02:39:00,67.5,57.7,30.26,East,94,0.0,0.0,71,0.00,,SKC,0.00,VWS V14.01,2013-07-15 07:39:00,
2013-07-15 02:45:00,67.5,57.7,30.26,East,94,0.0,0.0,71,0.00,,SKC,0.00,VWS V14.01,2013-07-15 07:45:00,
2013-07-15 02:50:00,67.6,57.9,30.26,ESE,122,0.0,0.0,71,0.00,,SKC,0.00,VWS V14.01,2013-07-15 07:50:00,
2013-07-15 02:55:00,67.8,57.7,30.26,ESE,122,0.0,0.0,70,0.00,,SKC,0.00,VWS V14.01,2013-07-15 07:55:00,
2013-07-15 03:00:00,67.8,57.3,30.26,ESE,122,0.0,0.0,69,0.00,,SKC,0.00,VWS V14.01,2013-07-15 08:00:00,
2013-07-15 03:05:00,68.0,57.1,30.26,ESE,122,0.0,0.0,68,0.00,,SKC,0.00,VWS V14.01,2013-07-15 08:05:00,
2013-07-15 03:11:00,68.0,57.1,30.26,SE,126,4.0,4.0,68,0.00,,SKC,0.00,VWS V14.01,2013-07-15 08:11:00,
2013-07-15 03:16:00,68.0,57.1,30.26,SE,126,0.0,5.6,68,0.00,,SKC,0.00,VWS V14.01,2013-07-15 08:16:00,
2013-07-15 03:20:00,67.3,56.8,30.26,SE,127,0.0,0.0,69,0.00,,SKC,0.00,VWS V14.01,2013-07-15 08:20:00,
2013-07-15 03:21:00,67.8,57.3,30.26,SE,126,0.0,0.0,69,0.00,,SKC,0.00,VWS V14.01,2013-07-15 08:21:00,
2013-07-15 03:26:00,67.5,57.0,30.26,SE,127,0.0,0.0,69,0.00,,SKC,0.00,VWS V14.01,2013-07-15 08:26:00,
2013-07-15 03:31:00,67.1,56.6,30.26,SE,127,0.0,0.0,69,0.00,,SKC,0.00,VWS V14.01,2013-07-15 08:31:00,
2013-07-15 03:33:00,66.6,57.7,30.26,SE,126,0.0,4.8,73,0.00,,SKC,0.00,VWS V14.01,2013-07-15 08:33:00,
2013-07-15 03:36:00,66.7,56.7,30.26,SE,127,0.0,0.0,70,0.00,,SKC,0.00,VWS V14.01,2013-07-15 08:36:00,
2013-07-15 03:41:00,66.6,57.7,30.26,SE,126,0.0,0.0,73,0.00,,SKC,0.00,VWS V14.01,2013-07-15 08:41:00,
2013-07-15 03:43:00,66.7,57.4,30.26,SE,126,0.0,0.0,72,0.00,,SKC,0.00,VWS V14.01,2013-07-15 08:43:00,
2013-07-15 03:44:00,66.7,57.4,30.26,SE,126,0.0,0.0,72,0.00,,SKC,0.00,VWS V14.01,2013-07-15 08:44:00,
2013-07-15 03:47:00,66.7,57.4,30.26,SE,126,0.0,0.0,72,0.00,,SKC,0.00,VWS V14.01,2013-07-15 08:47:00,
2013-07-15 03:48:00,66.9,57.6,30.26,SE,125,0.0,0.0,72,0.00,,SKC,0.00,VWS V14.01,2013-07-15 08:48:00,
2013-07-15 03:52:00,66.7,57.4,30.26,SE,126,0.0,0.0,72,0.00,,SKC,0.00,VWS V14.01,2013-07-15 08:52:00,
2013-07-15 03:59:00,66.9,57.6,30.26,SE,125,0.0,0.0,72,0.00,,SKC,0.00,VWS V14.01,2013-07-15 08:59:00,
2013-07-15 04:04:00,66.9,57.2,30.26,SE,127,0.0,0.0,71,0.00,,SKC,0.00,VWS V14.01,2013-07-15 09:04:00,
2013-07-15 04:09:00,66.7,57.0,30.26,SE,127,0.0,0.0,71,0.00,,SKC,0.00,VWS V14.01,2013-07-15 09:09:00,
2013-07-15 04:15:00,66.6,57.3,30.26,SE,127,0.0,0.0,72,0.00,,SKC,0.00,VWS V14.01,2013-07-15 09:15:00,
2013-07-15 04:20:00,66.6,57.3,30.26,SE,127,0.0,0.0,72,0.00,,SKC,0.00,VWS V14.01,2013-07-15 09:20:00,
2013-07-15 04:25:00,66.4,57.1,30.26,SE,127,0.0,0.0,72,0.00,,SKC,0.00,VWS V14.01,2013-07-15 09:25:00,
2013-07-15 04:30:00,66.2,56.9,30.26,SE,127,0.0,0.0,72,0.00,,SKC,0.00,VWS V14.01,2013-07-15 09:30:00,
2013-07-15 04:35:00,65.7,56.4,30.26,SE,127,0.0,0.0,72,0.00,,SKC,0.00,VWS V14.01,2013-07-15 09:35:00,
2013-07-15 04:40:00,65.1,55.9,30.26,SE,127,0.0,0.0,72,0.00,,SKC,0.00,VWS V14.01,2013-07-15 09:40:00,
2013-07-15 04:45:00,64.9,56.1,30.26,SE,127,0.0,0.0,73,0.00,,SKC,0.00,VWS V14.01,2013-07-15 09:45:00,
2013-07-15 04:50:00,64.8,55.9,30.26,SE,127,0.0,0.0,73,0.00,,SKC,0.00,VWS V14.01,2013-07-15 09:50:00,
2013-07-15 04:55:00,64.6,56.1,30.26,SE,127,0.0,0.0,74,0.00,,SKC,0.00,VWS V14.01,2013-07-15 09:55:00,
2013-07-15 05:00:00,64.4,55.9,30.26,SE,127,0.0,0.0,74,0.00,,SKC,0.00,VWS V14.01,2013-07-15 10:00:00,
2013-07-15 05:02:00,64.2,57.2,30.26,SE,127,0.0,0.0,78,0.00,,SKC,0.00,VWS V14.01,2013-07-15 10:02:00,
2013-07-15 05:05:00,64.2,56.1,30.26,SE,127,0.0,0.0,75,0.00,,SKC,0.00,VWS V14.01,2013-07-15 10:05:00,
2013-07-15 05:10:00,64.4,57.0,30.26,SE,127,0.0,0.0,77,0.00,,SKC,0.00,VWS V14.01,2013-07-15 10:10:00,
2013-07-15 05:16:00,64.0,57.0,30.26,SE,127,0.0,0.0,78,0.00,,SKC,0.00,VWS V14.01,2013-07-15 10:16:00,
2013-07-15 05:21:00,63.9,57.2,30.26,SE,127,0.0,0.0,79,0.00,,SKC,0.00,VWS V14.01,2013-07-15 10:21:00,
2013-07-15 05:26:00,63.9,57.2,30.26,SE,127,0.0,0.0,79,0.00,,SKC,0.00,VWS V14.01,2013-07-15 10:26:00,
2013-07-15 05:31:00,63.7,57.0,30.26,SE,127,0.0,0.0,79,0.00,,SKC,0.00,VWS V14.01,2013-07-15 10:31:00,
2013-07-15 05:32:00,63.9,57.9,30.26,SE,127,0.0,0.0,81,0.00,,SKC,0.00,VWS V14.01,2013-07-15 10:32:00,
2013-07-15 05:33:00,63.9,57.9,30.26,SE,127,0.0,0.0,81,0.00,,SKC,0.00,VWS V14.01,2013-07-15 10:33:00,
2013-07-15 05:36:00,63.5,56.9,30.26,SE,127,0.0,0.0,79,0.00,,SKC,0.00,VWS V14.01,2013-07-15 10:36:00,
2013-07-15 05:41:00,63.9,57.6,30.26,SE,127,0.0,0.0,80,0.00,,SKC,0.00,VWS V14.01,2013-07-15 10:41:00,
2013-07-15 05:43:00,63.5,57.2,30.26,SSE,155,0.0,0.0,80,0.00,,SKC,0.00,VWS V14.01,2013-07-15 10:43:00,
2013-07-15 05:46:00,63.7,57.4,30.26,SE,127,0.0,0.0,80,0.00,,SKC,0.00,VWS V14.01,2013-07-15 10:46:00,
2013-07-15 05:51:00,63.5,57.2,30.26,SSE,164,0.0,0.0,80,0.00,,SKC,0.00,VWS V14.01,2013-07-15 10:51:00,
2013-07-15 05:57:00,63.5,57.6,30.26,SSE,155,0.0,0.0,81,0.00,,SKC,0.00,VWS V14.01,2013-07-15 10:57:00,
2013-07-15 06:00:00,64.4,59.1,30.26,SSE,156,0.0,0.0,83,0.00,,SKC,0.00,VWS V14.01,2013-07-15 11:00:00,
2013-07-15 06:02:00,63.7,57.8,30.26,SSE,155,0.0,0.0,81,0.00,,SKC,0.00,VWS V14.01,2013-07-15 11:02:00,
2013-07-15 06:07:00,64.0,58.8,30.26,SSE,157,0.0,0.0,83,0.00,,SKC,0.00,VWS V14.01,2013-07-15 11:07:00,
2013-07-15 06:12:00,64.8,59.5,30.26,SSE,157,0.0,0.0,83,0.00,,SKC,0.00,VWS V14.01,2013-07-15 11:12:00,
2013-07-15 06:17:00,64.9,59.7,30.26,ESE,115,0.0,0.0,83,0.00,,SKC,0.00,VWS V14.01,2013-07-15 11:17:00,
2013-07-15 06:22:00,64.9,59.3,30.26,ESE,115,0.0,0.0,82,0.00,,SKC,0.00,VWS V14.01,2013-07-15 11:22:00,
2013-07-15 06:27:00,64.9,59.3,30.26,ESE,115,0.0,0.0,82,0.00,,SKC,0.00,VWS V14.01,2013-07-15 11:27:00,
2013-07-15 06:32:00,65.3,59.7,30.26,ESE,115,0.0,0.0,82,0.00,,SKC,0.00,VWS V14.01,2013-07-15 11:32:00,
2013-07-15 06:38:00,65.5,59.5,30.26,ESE,114,0.0,0.0,81,0.00,,SKC,0.00,VWS V14.01,2013-07-15 11:38:00,
2013-07-15 06:44:00,65.8,59.8,30.26,ESE,114,0.0,0.0,81,0.00,,SKC,0.00,VWS V14.01,2013-07-15 11:44:00,
2013-07-15 06:49:00,66.6,59.5,30.26,East,90,0.0,0.0,78,0.00,,SKC,0.00,VWS V14.01,2013-07-15 11:49:00,
2013-07-15 06:55:00,67.1,59.3,30.29,East,91,0.0,0.0,76,0.00,,SKC,0.00,VWS V14.01,2013-07-15 11:55:00,
2013-07-15 06:58:00,67.6,58.7,30.29,ESE,118,0.0,0.0,73,0.00,,SKC,0.00,VWS V14.01,2013-07-15 11:58:00,
2013-07-15 07:00:00,67.3,59.1,30.29,East,91,0.0,0.0,75,0.00,,SKC,0.00,VWS V14.01,2013-07-15 12:00:00,
2013-07-15 07:06:00,67.6,59.1,30.29,ESE,118,0.0,0.0,74,0.00,,SKC,0.00,VWS V14.01,2013-07-15 12:06:00,
2013-07-15 07:11:00,67.8,58.9,30.29,ESE,118,0.0,0.0,73,0.00,,SKC,0.00,VWS V14.01,2013-07-15 12:11:00,
2013-07-15 07:16:00,68.2,58.8,30.29,ESE,118,0.0,0.0,72,0.00,,SKC,0.00,VWS V14.01,2013-07-15 12:16:00,
2013-07-15 07:20:00,68.9,59.1,30.29,ESE,119,0.0,0.0,71,0.00,,SKC,0.00,VWS V14.01,2013-07-15 12:20:00,
2013-07-15 07:21:00,68.4,59.0,30.29,ESE,118,0.0,0.0,72,0.00,,SKC,0.00,VWS V14.01,2013-07-15 12:21:00,
2013-07-15 07:26:00,68.7,59.0,30.29,ESE,118,0.0,0.0,71,0.00,,SKC,0.00,VWS V14.01,2013-07-15 12:26:00,
2013-07-15 07:28:00,69.4,59.6,30.29,ESE,119,0.0,0.0,71,0.00,,SKC,0.00,VWS V14.01,2013-07-15 12:28:00,
2013-07-15 07:31:00,69.1,59.3,30.29,ESE,119,0.0,0.0,71,0.00,,SKC,0.00,VWS V14.01,2013-07-15 12:31:00,
2013-07-15 07:32:00,69.8,59.6,30.29,ESE,120,0.0,0.0,70,0.00,,SKC,0.00,VWS V14.01,2013-07-15 12:32:00,
2013-07-15 07:35:00,70.2,59.5,30.29,SSE,167,0.0,0.0,69,0.00,,SKC,0.00,VWS V14.01,2013-07-15 12:35:00,
2013-07-15 07:36:00,69.4,59.6,30.29,ESE,119,0.0,0.0,71,0.00,,SKC,0.00,VWS V14.01,2013-07-15 12:36:00,
2013-07-15 07:38:00,70.3,59.7,30.29,SE,139,0.0,0.0,69,0.00,,SKC,0.00,VWS V14.01,2013-07-15 12:38:00,
2013-07-15 07:40:00,70.5,59.9,30.29,SE,139,0.0,0.0,69,0.00,,SKC,0.00,VWS V14.01,2013-07-15 12:40:00,
2013-07-15 07:41:00,70.7,60.0,30.29,SE,140,0.0,4.0,69,0.00,,SKC,0.00,VWS V14.01,2013-07-15 12:41:00,
2013-07-15 07:43:00,70.0,59.3,30.29,ESE,120,0.0,0.0,69,0.00,,SKC,0.00,VWS V14.01,2013-07-15 12:43:00,
2013-07-15 07:48:00,71.1,60.0,30.29,SE,141,0.0,6.4,68,0.00,,SKC,0.00,VWS V14.01,2013-07-15 12:48:00,
2013-07-15 07:49:00,70.3,59.7,30.29,SE,139,0.0,0.0,69,0.00,,SKC,0.00,VWS V14.01,2013-07-15 12:49:00,
2013-07-15 07:54:00,70.9,60.2,30.29,SE,136,0.0,0.0,69,0.00,,SKC,0.00,VWS V14.01,2013-07-15 12:54:00,
2013-07-15 07:56:00,71.6,60.1,30.29,ESE,118,0.0,4.8,67,0.00,,SKC,0.00,VWS V14.01,2013-07-15 12:56:00,
2013-07-15 07:58:00,71.8,59.8,30.29,SE,144,0.0,4.8,66,0.00,,SKC,0.00,VWS V14.01,2013-07-15 12:58:00,
2013-07-15 08:00:00,71.2,60.2,30.29,SE,141,0.0,4.0,68,0.00,,SKC,0.00,VWS V14.01,2013-07-15 13:00:00,
2013-07-15 08:03:00,72.1,58.9,30.29,ESE,114,0.0,4.0,63,0.00,,SKC,0.00,VWS V14.01,2013-07-15 13:03:00,
2013-07-15 08:04:00,72.1,58.9,30.29,ESE,115,0.0,4.0,63,0.00,,SKC,0.00,VWS V14.01,2013-07-15 13:04:00,
2013-07-15 08:06:00,71.6,60.1,30.29,ESE,119,4.8,4.8,67,0.00,,SKC,0.00,VWS V14.01,2013-07-15 13:06:00,
2013-07-15 08:11:00,72.0,58.7,30.29,SSW,210,4.0,4.0,63,0.00,,SKC,0.00,VWS V14.01,2013-07-15 13:11:00,
2013-07-15 08:16:00,72.3,59.5,30.29,ESE,116,0.0,0.0,64,0.00,,SKC,0.00,VWS V14.01,2013-07-15 13:16:00,
2013-07-15 08:21:00,75.9,59.1,30.29,ESE,118,0.0,0.0,56,0.00,,SKC,0.00,VWS V14.01,2013-07-15 13:21:00,
2013-07-15 08:26:00,80.1,56.8,30.29,SSW,195,0.0,0.0,45,0.00,,SKC,0.00,VWS V14.01,2013-07-15 13:26:00,
2013-07-15 08:31:00,81.1,56.5,30.29,South,190,0.0,0.0,43,0.00,,SKC,0.00,VWS V14.01,2013-07-15 13:31:00,
2013-07-15 08:36:00,82.0,56.0,30.29,South,186,0.0,4.8,41,0.00,,SKC,0.00,VWS V14.01,2013-07-15 13:36:00,
2013-07-15 08:41:00,78.4,54.7,30.29,SSE,151,0.0,4.0,44,0.00,,SKC,0.00,VWS V14.01,2013-07-15 13:41:00,
2013-07-15 08:46:00,77.0,55.8,30.29,ESE,113,0.0,4.8,48,0.00,,SKC,0.00,VWS V14.01,2013-07-15 13:46:00,
2013-07-15 08:51:00,77.0,57.5,30.29,South,170,5.6,5.6,51,0.00,,SKC,0.00,VWS V14.01,2013-07-15 13:51:00,
2013-07-15 08:56:00,76.3,56.3,30.29,SE,135,0.0,6.4,50,0.00,,SKC,0.00,VWS V14.01,2013-07-15 13:56:00,
2013-07-15 09:00:00,77.5,56.9,30.29,SE,127,4.0,5.6,49,0.00,,SKC,0.00,VWS V14.01,2013-07-15 14:00:00,
2013-07-15 09:01:00,76.8,56.8,30.29,ESE,117,6.4,6.4,50,0.00,,SKC,0.00,VWS V14.01,2013-07-15 14:01:00,
2013-07-15 09:06:00,77.2,57.7,30.29,ESE,109,0.0,0.0,51,0.00,,SKC,0.00,VWS V14.01,2013-07-15 14:06:00,
2013-07-15 09:10:00,78.6,57.3,30.29,South,190,4.8,9.7,48,0.00,,SKC,0.00,VWS V14.01,2013-07-15 14:10:00,
2013-07-15 09:11:00,77.9,57.8,30.29,SE,146,0.0,5.6,50,0.00,,SKC,0.00,VWS V14.01,2013-07-15 14:11:00,
2013-07-15 09:16:00,78.3,55.8,30.29,ESE,118,9.7,9.7,46,0.00,,SKC,0.00,VWS V14.01,2013-07-15 14:16:00,
2013-07-15 09:21:00,78.6,56.1,30.29,ESE,110,6.4,6.4,46,0.00,,SKC,0.00,VWS V14.01,2013-07-15 14:21:00,
2013-07-15 09:26:00,79.2,56.0,30.29,East,98,0.0,0.0,45,0.00,,SKC,0.00,VWS V14.01,2013-07-15 14:26:00,
2013-07-15 09:31:00,79.2,56.0,30.29,East,84,4.0,5.6,45,0.00,,SKC,0.00,VWS V14.01,2013-07-15 14:31:00,
2013-07-15 09:32:00,80.4,55.9,30.29,ESE,112,4.8,4.8,43,0.00,,SKC,0.00,VWS V14.01,2013-07-15 14:32:00,
2013-07-15 09:35:00,81.0,57.0,30.29,SW,221,0.0,6.4,44,0.00,,SKC,0.00,VWS V14.01,2013-07-15 14:35:00,
2013-07-15 09:36:00,81.1,56.5,30.29,SW,215,0.0,0.0,43,0.00,,SKC,0.00,VWS V14.01,2013-07-15 14:36:00,
2013-07-15 09:37:00,79.7,56.5,30.29,SSE,149,0.0,4.8,45,0.00,,SKC,0.00,VWS V14.01,2013-07-15 14:37:00,
2013-07-15 09:40:00,81.5,56.2,30.29,SSW,198,5.6,5.6,42,0.00,,SKC,0.00,VWS V14.01,2013-07-15 14:40:00,
2013-07-15 09:42:00,80.6,56.7,30.29,SW,230,4.8,5.6,44,0.00,,SKC,0.00,VWS V14.01,2013-07-15 14:42:00,
2013-07-15 09:45:00,81.5,55.5,30.29,South,191,4.0,4.0,41,0.00,,SKC,0.00,VWS V14.01,2013-07-15 14:45:00,
2013-07-15 09:47:00,81.9,55.9,30.29,ESE,118,0.0,0.0,41,0.00,,SKC,0.00,VWS V14.01,2013-07-15 14:47:00,
2013-07-15 09:48:00,81.3,56.1,30.29,South,185,5.6,5.6,42,0.00,,SKC,0.00,VWS V14.01,2013-07-15 14:48:00,
2013-07-15 09:54:00,81.9,55.9,30.29,South,191,4.0,7.2,41,0.00,,SKC,0.00,VWS V14.01,2013-07-15 14:54:00,
2013-07-15 09:55:00,82.0,56.0,30.29,ESE,109,0.0,0.0,41,0.00,,SKC,0.00,VWS V14.01,2013-07-15 14:55:00,
2013-07-15 09:58:00,82.2,56.2,30.29,SSW,195,4.8,7.2,41,0.00,,SKC,0.00,VWS V14.01,2013-07-15 14:58:00,
2013-07-15 09:59:00,81.9,56.5,30.29,SSE,152,4.8,4.8,42,0.00,,SKC,0.00,VWS V14.01,2013-07-15 14:59:00,
2013-07-15 10:01:00,82.6,55.8,30.29,East,89,4.8,4.8,40,0.00,,SKC,0.00,VWS V14.01,2013-07-15 15:01:00,
2013-07-15 10:04:00,82.9,56.2,30.29,SW,218,4.8,5.6,40,0.00,,SKC,0.00,VWS V14.01,2013-07-15 15:04:00,
2013-07-15 10:05:00,82.9,56.2,30.29,South,176,0.0,4.8,40,0.00,,SKC,0.00,VWS V14.01,2013-07-15 15:05:00,
2013-07-15 10:06:00,82.2,56.9,30.29,ESE,109,0.0,0.0,42,0.00,,SKC,0.00,VWS V14.01,2013-07-15 15:06:00,
2013-07-15 10:12:00,82.8,56.0,30.29,East,97,0.0,4.8,40,0.00,,SKC,0.00,VWS V14.01,2013-07-15 15:12:00,
2013-07-15 10:17:00,83.1,56.3,30.29,SW,223,4.8,4.8,40,0.00,,SKC,0.00,VWS V14.01,2013-07-15 15:17:00,
2013-07-15 10:22:00,83.3,55.8,30.29,SSW,192,4.8,4.8,39,0.00,,SKC,0.00,VWS V14.01,2013-07-15 15:22:00,
2013-07-15 10:27:00,83.7,56.1,30.29,SSW,198,5.6,6.4,39,0.00,,SKC,0.00,VWS V14.01,2013-07-15 15:27:00,
2013-07-15 10:32:00,84.0,57.1,30.29,SSW,212,6.4,6.4,40,0.00,,SKC,0.00,VWS V14.01,2013-07-15 15:32:00,
2013-07-15 10:37:00,83.7,56.1,30.29,South,173,4.8,4.8,39,0.00,,SKC,0.00,VWS V14.01,2013-07-15 15:37:00,
2013-07-15 10:42:00,83.5,55.2,30.29,South,173,4.8,4.8,38,0.00,,SKC,0.00,VWS V14.01,2013-07-15 15:42:00,
2013-07-15 10:44:00,83.8,55.5,30.29,SE,146,0.0,0.0,38,0.00,,SKC,0.00,VWS V14.01,2013-07-15 15:44:00,
2013-07-15 10:48:00,83.8,55.5,30.29,East,90,4.8,4.8,38,0.00,,SKC,0.00,VWS V14.01,2013-07-15 15:48:00,
2013-07-15 10:54:00,84.0,55.0,30.29,SE,146,0.0,0.0,37,0.00,,SKC,0.00,VWS V14.01,2013-07-15 15:54:00,
2013-07-15 10:59:00,83.7,55.4,30.29,SSW,205,0.0,0.0,38,0.00,,SKC,0.00,VWS V14.01,2013-07-15 15:59:00,
2013-07-15 11:06:00,84.6,56.2,30.29,SSW,197,4.8,4.8,38,0.00,,SKC,0.00,VWS V14.01,2013-07-15 16:06:00,
2013-07-15 11:11:00,84.6,54.7,30.29,SW,222,8.9,8.9,36,0.00,,SKC,0.00,VWS V14.01,2013-07-15 16:11:00,
2013-07-15 11:16:00,84.7,53.3,30.29,ESE,113,5.6,8.9,34,0.00,,SKC,0.00,VWS V14.01,2013-07-15 16:16:00,
2013-07-15 11:20:00,84.9,52.6,30.29,SSW,213,0.0,0.0,33,0.00,,SKC,0.00,VWS V14.01,2013-07-15 16:20:00,
2013-07-15 11:21:00,84.7,54.1,30.29,East,98,0.0,5.6,35,0.00,,SKC,0.00,VWS V14.01,2013-07-15 16:21:00,
2013-07-15 11:27:00,85.3,54.6,30.29,SSW,213,0.0,5.6,35,0.00,,SKC,0.00,VWS V14.01,2013-07-15 16:27:00,
2013-07-15 11:32:00,85.3,54.6,30.29,SSE,153,4.0,4.0,35,0.00,,SKC,0.00,VWS V14.01,2013-07-15 16:32:00,
2013-07-15 11:37:00,85.3,53.8,30.29,ESE,116,0.0,0.0,34,0.00,,SKC,0.00,VWS V14.01,2013-07-15 16:37:00,
2013-07-15 11:38:00,85.1,54.4,30.29,SSE,148,0.0,0.0,35,0.00,,SKC,0.00,VWS V14.01,2013-07-15 16:38:00,
2013-07-15 11:39:00,84.6,53.9,30.29,SSE,148,0.0,0.0,35,0.00,,SKC,0.00,VWS V14.01,2013-07-15 16:39:00,
2013-07-15 11:41:00,85.5,55.5,30.29,SSE,148,0.0,0.0,36,0.00,,SKC,0.00,VWS V14.01,2013-07-15 16:41:00,
2013-07-15 11:42:00,85.6,55.7,30.29,ESE,116,0.0,0.0,36,0.00,,SKC,0.00,VWS V14.01,2013-07-15 16:42:00,
2013-07-15 11:44:00,85.8,57.3,30.29,SW,233,6.4,6.4,38,0.00,,SKC,0.00,VWS V14.01,2013-07-15 16:44:00,
2013-07-15 11:45:00,86.2,56.9,30.29,SW,226,0.0,6.4,37,0.00,,SKC,0.00,VWS V14.01,2013-07-15 16:45:00,
2013-07-15 11:47:00,86.4,57.0,30.29,SW,227,0.0,0.0,37,0.00,,SKC,0.00,VWS V14.01,2013-07-15 16:47:00,
2013-07-15 11:48:00,86.7,57.4,30.29,SW,227,0.0,0.0,37,0.00,,SKC,0.00,VWS V14.01,2013-07-15 16:48:00,
2013-07-15 11:49:00,85.1,55.2,30.29,SSE,148,0.0,0.0,36,0.00,,SKC,0.00,VWS V14.01,2013-07-15 16:49:00,
2013-07-15 11:50:00,86.9,56.0,30.29,WSW,248,4.0,7.2,35,0.00,,SKC,0.00,VWS V14.01,2013-07-15 16:50:00,
2013-07-15 11:51:00,86.9,55.2,30.29,West,261,0.0,4.0,34,0.00,,SKC,0.00,VWS V14.01,2013-07-15 16:51:00,
2013-07-15 11:52:00,87.1,56.1,30.29,SW,232,4.8,4.8,35,0.00,,SKC,0.00,VWS V14.01,2013-07-15 16:52:00,
2013-07-15 11:53:00,86.7,55.0,30.29,SW,232,4.8,4.8,34,0.00,,SKC,0.00,VWS V14.01,2013-07-15 16:53:00,
2013-07-15 11:55:00,87.3,57.1,30.29,SW,232,4.8,4.8,36,0.00,,SKC,0.00,VWS V14.01,2013-07-15 16:55:00,
2013-07-15 11:57:00,85.5,53.1,30.29,SW,232,4.8,4.8,33,0.00,,SKC,0.00,VWS V14.01,2013-07-15 16:57:00,
2013-07-15 11:58:00,85.8,53.4,30.29,SW,232,4.8,4.8,33,0.00,,SKC,0.00,VWS V14.01,2013-07-15 16:58:00,
2013-07-15 11:59:00,85.6,54.9,30.29,SW,232,4.8,4.8,35,0.00,,SKC,0.00,VWS V14.01,2013-07-15 16:59:00,
2013-07-15 12:00:00,86.0,56.0,30.29,SW,232,4.8,4.8,36,0.00,,SKC,0.00,VWS V14.01,2013-07-15 17:00:00,
2013-07-15 12:01:00,86.0,56.7,30.29,SW,232,4.8,4.8,37,0.00,,SKC,0.00,VWS V14.01,2013-07-15 17:01:00,
2013-07-15 12:02:00,86.4,57.0,30.29,SW,232,4.8,4.8,37,0.00,,SKC,0.00,VWS V14.01,2013-07-15 17:02:00,
2013-07-15 12:04:00,86.4,54.7,30.29,SW,232,4.8,4.8,34,0.00,,SKC,0.00,VWS V14.01,2013-07-15 17:04:00,
2013-07-15 12:06:00,86.7,54.2,30.29,SW,232,4.8,4.8,33,0.00,,SKC,0.00,VWS V14.01,2013-07-15 17:06:00,
2013-07-15 12:07:00,85.8,55.0,30.29,SW,232,4.8,4.8,35,0.00,,SKC,0.00,VWS V14.01,2013-07-15 17:07:00,
2013-07-15 12:09:00,85.8,54.2,30.29,SW,232,4.8,4.8,34,0.00,,SKC,0.00,VWS V14.01,2013-07-15 17:09:00,
2013-07-15 12:10:00,86.5,55.7,30.29,SW,232,4.8,4.8,35,0.00,,SKC,0.00,VWS V14.01,2013-07-15 17:10:00,
2013-07-15 12:12:00,86.7,55.0,30.29,SW,232,4.8,4.8,34,0.00,,SKC,0.00,VWS V14.01,2013-07-15 17:12:00,
2013-07-15 12:13:00,86.5,56.4,30.29,SW,232,4.8,4.8,36,0.00,,SKC,0.00,VWS V14.01,2013-07-15 17:13:00,
2013-07-15 12:19:00,87.4,55.7,30.29,SW,232,4.8,4.8,34,0.00,,SKC,0.00,VWS V14.01,2013-07-15 17:19:00,
2013-07-15 12:20:00,87.1,56.1,30.29,SW,232,4.8,4.8,35,0.00,,SKC,0.00,VWS V14.01,2013-07-15 17:20:00,
2013-07-15 12:21:00,86.5,54.9,30.29,SW,232,4.8,4.8,34,0.00,,SKC,0.00,VWS V14.01,2013-07-15 17:21:00,
2013-07-15 12:22:00,86.9,55.2,30.29,NE,49,5.6,5.6,34,0.00,,SKC,0.00,VWS V14.01,2013-07-15 17:22:00,
2013-07-15 12:24:00,87.1,56.1,30.29,NE,49,5.6,5.6,35,0.00,,SKC,0.00,VWS V14.01,2013-07-15 17:24:00,
2013-07-15 12:25:00,87.1,56.9,30.29,NE,49,5.6,5.6,36,0.00,,SKC,0.00,VWS V14.01,2013-07-15 17:25:00,
2013-07-15 12:26:00,87.1,56.1,30.29,SW,232,4.8,4.8,35,0.00,,SKC,0.00,VWS V14.01,2013-07-15 17:26:00,
2013-07-15 12:27:00,85.8,54.2,30.29,NE,49,5.6,5.6,34,0.00,,SKC,0.00,VWS V14.01,2013-07-15 17:27:00,
2013-07-15 12:28:00,86.4,54.7,30.29,NE,49,5.6,5.6,34,0.00,,SKC,0.00,VWS V14.01,2013-07-15 17:28:00,
2013-07-15 12:30:00,86.9,56.0,30.29,NE,49,5.6,5.6,35,0.00,,SKC,0.00,VWS V14.01,2013-07-15 17:30:00,
2013-07-15 12:33:00,85.8,54.2,30.29,NE,49,5.6,5.6,34,0.00,,SKC,0.00,VWS V14.01,2013-07-15 17:33:00,
2013-07-15 12:38:00,86.0,55.2,30.29,SW,230,9.7,9.7,35,0.00,,SKC,0.00,VWS V14.01,2013-07-15 17:38:00,
2013-07-15 12:39:00,86.7,55.8,30.29,NE,49,5.6,5.6,35,0.00,,SKC,0.00,VWS V14.01,2013-07-15 17:39:00,
2013-07-15 12:40:00,86.0,56.0,30.29,South,179,4.0,4.0,36,0.00,,SKC,0.00,VWS V14.01,2013-07-15 17:40:00,
2013-07-15 12:42:00,85.6,55.7,30.29,South,171,0.0,0.0,36,0.00,,SKC,0.00,VWS V14.01,2013-07-15 17:42:00,
2013-07-15 12:43:00,85.6,55.7,30.29,South,171,0.0,0.0,36,0.00,,SKC,0.00,VWS V14.01,2013-07-15 17:43:00,
2013-07-15 12:44:00,86.2,54.5,30.29,NE,49,5.6,5.6,34,0.00,,SKC,0.00,VWS V14.01,2013-07-15 17:44:00,
2013-07-15 12:45:00,85.6,56.4,30.29,South,171,0.0,0.0,37,0.00,,SKC,0.00,VWS V14.01,2013-07-15 17:45:00,
2013-07-15 12:49:00,85.6,55.7,30.29,South,171,0.0,0.0,36,0.00,,SKC,0.00,VWS V14.01,2013-07-15 17:49:00,
2013-07-15 12:50:00,85.6,57.1,30.29,South,171,0.0,0.0,38,0.00,,SKC,0.00,VWS V14.01,2013-07-15 17:50:00,
2013-07-15 12:51:00,85.5,56.2,30.29,South,171,0.0,4.0,37,0.00,,SKC,0.00,VWS V14.01,2013-07-15 17:51:00,
2013-07-15 12:52:00,85.3,55.3,30.29,South,171,0.0,0.0,36,0.00,,SKC,0.00,VWS V14.01,2013-07-15 17:52:00,
2013-07-15 12:53:00,84.9,55.8,30.29,South,171,0.0,0.0,37,0.00,,SKC,0.00,VWS V14.01,2013-07-15 17:53:00,
2013-07-15 12:54:00,85.3,56.1,30.29,South,170,4.8,4.8,37,0.00,,SKC,0.00,VWS V14.01,2013-07-15 17:54:00,
2013-07-15 12:55:00,85.3,56.1,30.29,South,170,4.8,4.8,37,0.00,,SKC,0.00,VWS V14.01,2013-07-15 17:55:00,
2013-07-15 12:57:00,85.6,56.4,30.29,South,171,0.0,0.0,37,0.00,,SKC,0.00,VWS V14.01,2013-07-15 17:57:00,
2013-07-15 12:58:00,85.5,57.0,30.29,West,262,0.0,0.0,38,0.00,,SKC,0.00,VWS V14.01,2013-07-15 17:58:00,
2013-07-15 13:00:00,85.6,57.1,30.29,West,262,0.0,0.0,38,0.00,,SKC,0.16,VWS V14.01,2013-07-15 18:00:00,
2013-07-15 13:01:00,85.6,57.1,30.29,West,262,0.0,0.0,38,0.00,,SKC,0.00,VWS V14.01,2013-07-15 18:01:00,
2013-07-15 13:02:00,85.6,57.1,30.29,West,262,0.0,0.0,38,0.00,,SKC,0.00,VWS V14.01,2013-07-15 18:02:00,
2013-07-15 13:03:00,85.6,57.1,30.29,West,262,0.0,0.0,38,0.00,,SKC,0.00,VWS V14.01,2013-07-15 18:03:00,
2013-07-15 13:04:00,85.6,56.4,30.29,West,262,0.0,0.0,37,0.00,,SKC,0.00,VWS V14.01,2013-07-15 18:04:00,
2013-07-15 13:05:00,85.8,56.6,30.29,West,262,0.0,0.0,37,0.00,,SKC,0.00,VWS V14.01,2013-07-15 18:05:00,
2013-07-15 13:06:00,85.3,56.1,30.29,South,170,4.8,4.8,37,0.00,,SKC,0.00,VWS V14.01,2013-07-15 18:06:00,
2013-07-15 13:17:00,86.2,57.6,30.29,West,262,0.0,0.0,38,0.00,,SKC,0.00,VWS V14.01,2013-07-15 18:17:00,
2013-07-15 13:23:00,87.6,56.6,30.29,West,262,0.0,0.0,35,0.00,,SKC,0.00,VWS V14.01,2013-07-15 18:23:00,
2013-07-15 13:29:00,86.2,54.5,30.29,West,262,0.0,0.0,34,0.00,,SKC,0.00,VWS V14.01,2013-07-15 18:29:00,
2013-07-15 13:34:00,86.9,56.8,30.29,West,262,0.0,0.0,36,0.00,,SKC,0.00,VWS V14.01,2013-07-15 18:34:00,
2013-07-15 13:40:00,86.2,57.6,30.26,West,262,0.0,0.0,38,0.00,,SKC,0.00,VWS V14.01,2013-07-15 18:40:00,
2013-07-15 13:45:00,85.8,58.0,30.26,West,262,0.0,0.0,39,0.00,,SKC,0.00,VWS V14.01,2013-07-15 18:45:00,
2013-07-15 13:54:00,87.1,58.4,30.26,ESE,122,4.0,4.0,38,0.00,,SKC,0.00,VWS V14.01,2013-07-15 18:54:00,
2013-07-15 13:59:00,87.6,58.2,30.26,ESE,122,4.0,4.0,37,0.00,,SKC,0.00,VWS V14.01,2013-07-15 18:59:00,
2013-07-15 14:05:00,87.1,57.7,30.26,ESE,122,4.0,4.0,37,0.00,,SKC,0.00,VWS V14.01,2013-07-15 19:05:00,
2013-07-15 14:10:00,86.2,56.1,30.26,ESE,122,4.0,4.0,36,0.00,,SKC,0.00,VWS V14.01,2013-07-15 19:10:00,
2013-07-15 14:16:00,86.7,58.1,30.26,ENE,61,0.0,0.0,38,0.00,,SKC,0.00,VWS V14.01,2013-07-15 19:16:00,
2013-07-15 14:22:00,86.9,58.3,30.26,ENE,61,0.0,0.0,38,0.00,,SKC,0.00,VWS V14.01,2013-07-15 19:22:00,
2013-07-15 14:27:00,86.7,57.4,30.26,ENE,61,0.0,0.0,37,0.00,,SKC,0.00,VWS V14.01,2013-07-15 19:27:00,
2013-07-15 14:30:00,88.9,59.3,30.26,ENE,61,0.0,0.0,37,0.00,,SKC,0.00,VWS V14.01,2013-07-15 19:30:00,
2013-07-15 14:32:00,86.9,57.5,30.26,ENE,61,0.0,0.0,37,0.00,,SKC,0.00,VWS V14.01,2013-07-15 19:32:00,
2013-07-15 14:38:00,88.5,58.2,30.26,ENE,61,0.0,0.0,36,0.00,,SKC,0.00,VWS V14.01,2013-07-15 19:38:00,
2013-07-15 14:40:00,86.9,57.5,30.26,ENE,61,0.0,0.0,37,0.00,,SKC,0.00,VWS V14.01,2013-07-15 19:40:00,
2013-07-15 14:44:00,87.6,56.6,30.26,ENE,61,0.0,0.0,35,0.00,,SKC,0.00,VWS V14.01,2013-07-15 19:44:00,
2013-07-15 14:45:00,86.4,56.3,30.26,ENE,61,0.0,0.0,36,0.00,,SKC,0.00,VWS V14.01,2013-07-15 19:45:00,
2013-07-15 14:47:00,86.9,57.5,30.26,ENE,61,0.0,0.0,37,0.00,,SKC,0.00,VWS V14.01,2013-07-15 19:47:00,
2013-07-15 14:50:00,86.9,57.5,30.26,ENE,61,0.0,0.0,37,0.00,,SKC,0.00,VWS V14.01,2013-07-15 19:50:00,
2013-07-15 14:52:00,87.4,58.0,30.26,ENE,61,0.0,0.0,37,0.00,,SKC,0.00,VWS V14.01,2013-07-15 19:52:00,
2013-07-15 14:53:00,87.8,58.3,30.26,ENE,61,0.0,0.0,37,0.00,,SKC,0.00,VWS V14.01,2013-07-15 19:53:00,
2013-07-15 14:55:00,86.7,57.4,30.26,ENE,61,0.0,0.0,37,0.00,,SKC,0.00,VWS V14.01,2013-07-15 19:55:00,
2013-07-15 14:57:00,87.8,57.5,30.23,ENE,61,0.0,0.0,36,0.00,,SKC,0.00,VWS V14.01,2013-07-15 19:57:00,
2013-07-15 14:59:00,87.8,57.5,30.23,ENE,61,0.0,0.0,36,0.00,,SKC,0.00,VWS V14.01,2013-07-15 19:59:00,
2013-07-15 15:01:00,87.3,57.8,30.26,ENE,61,0.0,0.0,37,0.00,,SKC,0.00,VWS V14.01,2013-07-15 20:01:00,
2013-07-15 15:04:00,87.6,58.2,30.23,ENE,61,0.0,0.0,37,0.00,,SKC,0.00,VWS V14.01,2013-07-15 20:04:00,
2013-07-15 15:06:00,87.6,56.6,30.23,ENE,61,0.0,0.0,35,0.00,,SKC,0.00,VWS V14.01,2013-07-15 20:06:00,
2013-07-15 15:08:00,87.1,56.9,30.23,ENE,61,0.0,0.0,36,0.00,,SKC,0.00,VWS V14.01,2013-07-15 20:08:00,
2013-07-15 15:11:00,87.4,57.2,30.23,ENE,61,0.0,0.0,36,0.00,,SKC,0.00,VWS V14.01,2013-07-15 20:11:00,
2013-07-15 15:13:00,88.3,58.0,30.23,ENE,61,0.0,0.0,36,0.00,,SKC,0.00,VWS V14.01,2013-07-15 20:13:00,
2013-07-15 15:16:00,87.8,58.3,30.23,ENE,61,0.0,0.0,37,0.00,,SKC,0.00,VWS V14.01,2013-07-15 20:16:00,
2013-07-15 15:17:00,87.3,56.3,30.23,ENE,61,0.0,0.0,35,0.00,,SKC,0.00,VWS V14.01,2013-07-15 20:17:00,
2013-07-15 15:18:00,87.3,57.1,30.23,ENE,61,0.0,0.0,36,0.00,,SKC,0.00,VWS V14.01,2013-07-15 20:18:00,
2013-07-15 15:19:00,87.6,57.4,30.23,ENE,61,0.0,0.0,36,0.00,,SKC,0.00,VWS V14.01,2013-07-15 20:19:00,
2013-07-15 15:20:00,86.9,56.0,30.23,ENE,61,0.0,0.0,35,0.00,,SKC,0.00,VWS V14.01,2013-07-15 20:20:00,
2013-07-15 15:22:00,87.3,57.1,30.23,ENE,61,0.0,0.0,36,0.00,,SKC,0.00,VWS V14.01,2013-07-15 20:22:00,
2013-07-15 15:24:00,88.0,56.1,30.23,ENE,61,0.0,0.0,34,0.00,,SKC,0.00,VWS V14.01,2013-07-15 20:24:00,
2013-07-15 15:25:00,87.4,58.0,30.23,ENE,61,0.0,0.0,37,0.00,,SKC,0.00,VWS V14.01,2013-07-15 20:25:00,
2013-07-15 15:26:00,87.1,56.9,30.23,ENE,61,0.0,0.0,36,0.00,,SKC,0.00,VWS V14.01,2013-07-15 20:26:00,
2013-07-15 15:33:00,87.3,57.1,30.23,ENE,61,0.0,0.0,36,0.00,,SKC,0.00,VWS V14.01,2013-07-15 20:33:00,
2013-07-15 15:35:00,88.0,56.9,30.23,ENE,61,0.0,0.0,35,0.00,,SKC,0.00,VWS V14.01,2013-07-15 20:35:00,
2013-07-15 15:37:00,88.2,57.9,30.23,ENE,61,0.0,0.0,36,0.00,,SKC,0.00,VWS V14.01,2013-07-15 20:37:00,
2013-07-15 15:38:00,87.8,57.5,30.23,ENE,61,0.0,0.0,36,0.00,,SKC,0.00,VWS V14.01,2013-07-15 20:38:00,
2013-07-15 15:40:00,88.2,58.6,30.23,ENE,61,0.0,0.0,37,0.00,,SKC,0.00,VWS V14.01,2013-07-15 20:40:00,
2013-07-15 15:42:00,88.5,57.4,30.23,ENE,61,0.0,0.0,35,0.00,,SKC,0.00,VWS V14.01,2013-07-15 20:42:00,
2013-07-15 15:44:00,88.0,56.9,30.23,ENE,61,0.0,0.0,35,0.00,,SKC,0.00,VWS V14.01,2013-07-15 20:44:00,
2013-07-15 15:49:00,88.3,57.2,30.23,ENE,61,0.0,0.0,35,0.00,,SKC,0.00,VWS V14.01,2013-07-15 20:49:00,
2013-07-15 15:50:00,88.5,56.6,30.23,ENE,61,0.0,0.0,34,0.00,,SKC,0.00,VWS V14.01,2013-07-15 20:50:00,
2013-07-15 15:55:00,89.1,57.9,30.23,ENE,61,0.0,0.0,35,0.00,,SKC,0.00,VWS V14.01,2013-07-15 20:55:00,
2013-07-15 15:56:00,88.9,56.9,30.23,ENE,61,0.0,0.0,34,0.00,,SKC,0.00,VWS V14.01,2013-07-15 20:56:00,
2013-07-15 15:57:00,88.7,56.8,30.23,ENE,61,0.0,0.0,34,0.00,,SKC,0.00,VWS V14.01,2013-07-15 20:57:00,
2013-07-15 15:59:00,89.6,59.1,30.23,ENE,61,0.0,0.0,36,0.00,,SKC,0.00,VWS V14.01,2013-07-15 20:59:00,
2013-07-15 16:00:00,89.6,58.3,30.23,ENE,61,0.0,0.0,35,0.00,,SKC,0.00,VWS V14.01,2013-07-15 21:00:00,
2013-07-15 16:02:00,89.4,57.4,30.23,ENE,61,0.0,0.0,34,0.00,,SKC,0.00,VWS V14.01,2013-07-15 21:02:00,
2013-07-15 16:03:00,89.4,58.2,30.23,ENE,61,0.0,0.0,35,0.00,,SKC,0.00,VWS V14.01,2013-07-15 21:03:00,
2013-07-15 16:05:00,88.0,56.9,30.23,East,89,11.3,11.3,35,0.00,,SKC,0.00,VWS V14.01,2013-07-15 21:05:00,
2013-07-15 16:09:00,89.2,58.8,30.23,ENE,61,0.0,0.0,36,0.00,,SKC,0.00,VWS V14.01,2013-07-15 21:09:00,
2013-07-15 16:10:00,88.5,58.2,30.23,East,89,11.3,11.3,36,0.00,,SKC,0.00,VWS V14.01,2013-07-15 21:10:00,
2013-07-15 16:14:00,89.6,57.5,30.23,East,89,11.3,11.3,34,0.00,,SKC,0.00,VWS V14.01,2013-07-15 21:14:00,
2013-07-15 16:20:00,88.5,57.4,30.23,East,89,11.3,11.3,35,0.00,,SKC,0.00,VWS V14.01,2013-07-15 21:20:00,
2013-07-15 16:25:00,87.1,56.9,30.23,East,89,11.3,11.3,36,0.00,,SKC,0.00,VWS V14.01,2013-07-15 21:25:00,
2013-07-15 16:31:00,87.1,59.2,30.23,East,89,11.3,11.3,39,0.00,,SKC,0.00,VWS V14.01,2013-07-15 21:31:00,
2013-07-15 16:37:00,87.1,59.2,30.23,East,89,11.3,11.3,39,0.00,,SKC,0.00,VWS V14.01,2013-07-15 21:37:00,
2013-07-15 16:39:00,87.8,59.1,30.23,East,89,11.3,11.3,38,0.00,,SKC,0.00,VWS V14.01,2013-07-15 21:39:00,
2013-07-15 16:43:00,87.4,58.0,30.23,East,89,11.3,11.3,37,0.00,,SKC,0.00,VWS V14.01,2013-07-15 21:43:00,
2013-07-15 16:50:00,87.8,57.5,30.23,East,89,11.3,11.3,36,0.00,,SKC,0.00,VWS V14.01,2013-07-15 21:50:00,
2013-07-15 16:55:00,87.4,58.7,30.23,East,89,11.3,11.3,38,0.00,,SKC,0.00,VWS V14.01,2013-07-15 21:55:00,
2013-07-15 17:00:00,86.9,58.3,30.23,East,89,11.3,11.3,38,0.00,,SKC,0.00,VWS V14.01,2013-07-15 22:00:00,
2013-07-15 17:06:00,88.5,59.7,30.23,East,89,11.3,11.3,38,0.00,,SKC,0.00,VWS V14.01,2013-07-15 22:06:00,
2013-07-15 17:11:00,88.2,58.6,30.23,East,89,11.3,11.3,37,0.00,,SKC,0.00,VWS V14.01,2013-07-15 22:11:00,
2013-07-15 17:16:00,88.7,58.3,30.23,East,89,11.3,11.3,36,0.00,,SKC,0.00,VWS V14.01,2013-07-15 22:16:00,
2013-07-15 17:21:00,88.7,59.1,30.20,East,89,11.3,11.3,37,0.00,,SKC,0.00,VWS V14.01,2013-07-15 22:21:00,
2013-07-15 17:27:00,88.5,59.7,30.20,East,89,11.3,11.3,38,0.00,,SKC,0.00,VWS V14.01,2013-07-15 22:27:00,
2013-07-15 17:33:00,88.2,59.4,30.20,East,89,11.3,11.3,38,0.00,,SKC,0.00,VWS V14.01,2013-07-15 22:33:00,
2013-07-15 17:35:00,88.2,59.4,30.20,East,89,11.3,11.3,38,0.00,,SKC,0.00,VWS V14.01,2013-07-15 22:35:00,
2013-07-15 17:38:00,87.8,57.5,30.20,East,89,11.3,11.3,36,0.00,,SKC,0.00,VWS V14.01,2013-07-15 22:38:00,
2013-07-15 17:39:00,90.0,58.7,30.20,East,89,11.3,11.3,35,0.00,,SKC,0.00,VWS V14.01,2013-07-15 22:39:00,
2013-07-15 17:40:00,90.1,58.0,30.20,East,89,11.3,11.3,34,0.00,,SKC,0.00,VWS V14.01,2013-07-15 22:40:00,
2013-07-15 17:43:00,87.6,58.2,30.20,East,89,11.3,11.3,37,0.00,,SKC,0.00,VWS V14.01,2013-07-15 22:43:00,
2013-07-15 17:44:00,90.7,57.7,30.20,East,89,11.3,11.3,33,0.00,,SKC,0.00,VWS V14.01,2013-07-15 22:44:00,
2013-07-15 17:45:00,90.7,57.7,30.20,East,89,11.3,11.3,33,0.00,,SKC,0.00,VWS V14.01,2013-07-15 22:45:00,
2013-07-15 17:47:00,90.1,56.3,30.20,East,89,11.3,11.3,32,0.00,,SKC,0.00,VWS V14.01,2013-07-15 22:47:00,
2013-07-15 17:49:00,91.4,57.4,30.20,East,89,11.3,11.3,32,0.00,,SKC,0.00,VWS V14.01,2013-07-15 22:49:00,
2013-07-15 17:50:00,90.1,58.0,30.20,East,89,11.3,11.3,34,0.00,,SKC,0.00,VWS V14.01,2013-07-15 22:50:00,
2013-07-15 17:52:00,93.2,58.1,30.20,East,89,11.3,11.3,31,0.00,,SKC,0.00,VWS V14.01,2013-07-15 22:52:00,
2013-07-15 17:55:00,90.3,56.5,30.20,East,89,11.3,11.3,32,0.00,,SKC,0.00,VWS V14.01,2013-07-15 22:55:00,
2013-07-15 17:59:00,87.4,57.2,30.20,East,89,11.3,11.3,36,0.00,,SKC,0.00,VWS V14.01,2013-07-15 22:59:00,
2013-07-15 18:00:00,88.3,58.8,30.20,East,89,11.3,11.3,37,0.00,,SKC,0.00,VWS V14.01,2013-07-15 23:00:00,
2013-07-15 18:01:00,92.1,57.2,30.20,East,89,11.3,11.3,31,0.00,,SKC,0.00,VWS V14.01,2013-07-15 23:01:00,
2013-07-15 18:05:00,87.8,59.1,30.20,East,89,11.3,11.3,38,0.00,,SKC,0.00,VWS V14.01,2013-07-15 23:05:00,
2013-07-15 18:06:00,90.9,57.8,30.20,East,89,11.3,11.3,33,0.00,,SKC,0.00,VWS V14.01,2013-07-15 23:06:00,
2013-07-15 18:10:00,87.1,59.2,30.20,East,89,11.3,11.3,39,0.00,,SKC,0.00,VWS V14.01,2013-07-15 23:10:00,
2013-07-15 18:14:00,88.0,59.2,30.20,East,89,11.3,11.3,38,0.00,,SKC,0.00,VWS V14.01,2013-07-15 23:14:00,
2013-07-15 18:17:00,87.1,59.8,30.20,East,89,11.3,11.3,40,0.00,,SKC,0.00,VWS V14.01,2013-07-15 23:17:00,
2013-07-15 18:18:00,87.3,59.3,30.20,East,89,11.3,11.3,39,0.00,,SKC,0.00,VWS V14.01,2013-07-15 23:18:00,
2013-07-15 18:20:00,87.1,59.2,30.20,East,89,11.3,11.3,39,0.00,,SKC,0.00,VWS V14.01,2013-07-15 23:20:00,
2013-07-15 18:24:00,87.3,60.0,30.20,East,89,11.3,11.3,40,0.00,,SKC,0.00,VWS V14.01,2013-07-15 23:24:00,
2013-07-15 18:25:00,87.1,59.2,30.20,East,89,11.3,11.3,39,0.00,,SKC,0.00,VWS V14.01,2013-07-15 23:25:00,
2013-07-15 18:27:00,86.9,60.4,30.20,East,89,11.3,11.3,41,0.00,,SKC,0.00,VWS V14.01,2013-07-15 23:27:00,
2013-07-15 18:28:00,86.7,60.9,30.20,East,89,11.3,11.3,42,0.00,,SKC,0.00,VWS V14.01,2013-07-15 23:28:00,
2013-07-15 18:30:00,87.1,59.2,30.20,East,89,11.3,11.3,39,0.00,,SKC,0.00,VWS V14.01,2013-07-15 23:30:00,
2013-07-15 18:35:00,87.3,60.0,30.20,East,89,11.3,11.3,40,0.00,,SKC,0.00,VWS V14.01,2013-07-15 23:35:00,
2013-07-15 18:40:00,85.8,60.8,30.20,East,89,11.3,11.3,43,0.00,,SKC,0.00,VWS V14.01,2013-07-15 23:40:00,
2013-07-15 18:43:00,84.0,61.6,30.20,East,89,11.3,11.3,47,0.00,,SKC,0.00,VWS V14.01,2013-07-15 23:43:00,
2013-07-15 18:46:00,85.1,61.4,30.20,East,89,11.3,11.3,45,0.00,,SKC,0.00,VWS V14.01,2013-07-15 23:46:00,
2013-07-15 18:48:00,83.5,61.8,30.20,East,89,11.3,11.3,48,0.00,,SKC,0.00,VWS V14.01,2013-07-15 23:48:00,
2013-07-15 18:54:00,83.8,61.5,30.20,East,89,11.3,11.3,47,0.00,,SKC,0.00,VWS V14.01,2013-07-15 23:54:00,
2013-07-15 18:59:00,82.8,61.1,30.20,East,89,11.3,11.3,48,0.00,,SKC,0.00,VWS V14.01,2013-07-15 23:59:00,
2013-07-15 19:00:00,83.3,61.0,30.20,East,89,11.3,11.3,47,0.00,,SKC,0.00,VWS V14.01,2013-07-16 00:00:00,
2013-07-15 19:05:00,83.1,61.4,30.20,East,89,11.3,11.3,48,0.00,,SKC,0.00,VWS V14.01,2013-07-16 00:05:00,
2013-07-15 19:07:00,82.8,61.1,30.20,East,89,11.3,11.3,48,0.00,,SKC,0.00,VWS V14.01,2013-07-16 00:07:00,
2013-07-15 19:09:00,82.8,61.1,30.20,SE,130,0.0,0.0,48,0.00,,SKC,0.00,VWS V14.01,2013-07-16 00:09:00,
2013-07-15 19:10:00,82.8,61.1,30.20,SE,130,0.0,0.0,48,0.00,,SKC,0.00,VWS V14.01,2013-07-16 00:10:00,
2013-07-15 19:12:00,82.8,61.1,30.20,East,89,11.3,11.3,48,0.00,,SKC,0.00,VWS V14.01,2013-07-16 00:12:00,
2013-07-15 19:19:00,82.8,61.1,30.20,SE,130,0.0,11.3,48,0.00,,SKC,0.00,VWS V14.01,2013-07-16 00:19:00,
2013-07-15 19:25:00,82.9,61.2,30.20,SE,130,0.0,0.0,48,0.00,,SKC,0.00,VWS V14.01,2013-07-16 00:25:00,
2013-07-15 19:30:00,83.1,61.4,30.20,SE,130,0.0,0.0,48,0.00,,SKC,0.00,VWS V14.01,2013-07-16 00:30:00,
2013-07-15 19:35:00,83.1,61.4,30.20,SE,130,0.0,0.0,48,0.00,,SKC,0.00,VWS V14.01,2013-07-16 00:35:00,
2013-07-15 19:40:00,83.1,62.0,30.20,SE,141,0.0,0.0,49,0.00,,SKC,0.00,VWS V14.01,2013-07-16 00:40:00,
2013-07-15 19:45:00,83.1,62.0,30.20,SE,141,0.0,0.0,49,0.00,,SKC,0.00,VWS V14.01,2013-07-16 00:45:00,
2013-07-15 19:51:00,82.9,61.2,30.20,SE,141,0.0,0.0,48,0.00,,SKC,0.00,VWS V14.01,2013-07-16 00:51:00,
2013-07-15 19:58:00,82.9,61.2,30.20,SE,131,0.0,0.0,48,0.00,,SKC,0.00,VWS V14.01,2013-07-16 00:58:00,
2013-07-15 20:03:00,82.8,61.1,30.20,NE,35,6.4,6.4,48,0.00,,SKC,0.00,VWS V14.01,2013-07-16 01:03:00,
2013-07-15 20:08:00,82.8,61.1,30.20,ESE,109,4.0,4.0,48,0.00,,SKC,0.00,VWS V14.01,2013-07-16 01:08:00,
2013-07-15 20:13:00,82.6,60.9,30.20,ESE,121,0.0,0.0,48,0.00,,SKC,0.00,VWS V14.01,2013-07-16 01:13:00,
2013-07-15 20:18:00,82.4,61.3,30.20,ESE,121,0.0,0.0,49,0.00,,SKC,0.00,VWS V14.01,2013-07-16 01:18:00,
2013-07-15 20:23:00,82.2,61.8,30.20,ESE,122,0.0,0.0,50,0.00,,SKC,0.00,VWS V14.01,2013-07-16 01:23:00,
2013-07-15 20:28:00,82.0,62.1,30.20,South,174,0.0,0.0,51,0.00,,SKC,0.00,VWS V14.01,2013-07-16 01:28:00,
2013-07-15 20:34:00,81.7,62.4,30.20,SSE,151,5.6,5.6,52,0.00,,SKC,0.00,VWS V14.01,2013-07-16 01:34:00,
2013-07-15 20:39:00,81.3,62.0,30.20,SE,127,0.0,0.0,52,0.00,,SKC,0.00,VWS V14.01,2013-07-16 01:39:00,
2013-07-15 20:44:00,81.1,62.4,30.20,South,173,0.0,0.0,53,0.00,,SKC,0.00,VWS V14.01,2013-07-16 01:44:00,
2013-07-15 20:45:00,80.4,62.8,30.20,South,172,0.0,0.0,55,0.00,,SKC,0.00,VWS V14.01,2013-07-16 01:45:00,
2013-07-15 20:49:00,80.8,62.6,30.20,South,172,0.0,0.0,54,0.00,,SKC,0.00,VWS V14.01,2013-07-16 01:49:00,
2013-07-15 20:52:00,79.9,63.3,30.20,ESE,118,0.0,4.0,57,0.00,,SKC,0.00,VWS V14.01,2013-07-16 01:52:00,
2013-07-15 20:54:00,79.9,63.3,30.20,East,87,0.0,0.0,57,0.00,,SKC,0.00,VWS V14.01,2013-07-16 01:54:00,
2013-07-15 20:55:00,80.4,62.8,30.20,South,172,0.0,0.0,55,0.00,,SKC,0.00,VWS V14.01,2013-07-16 01:55:00,
2013-07-15 21:01:00,80.1,63.5,30.20,ESE,118,0.0,5.6,57,0.00,,SKC,0.00,VWS V14.01,2013-07-16 02:01:00,
2013-07-15 21:06:00,80.1,63.5,30.20,SSE,150,0.0,4.8,57,0.00,,SKC,0.00,VWS V14.01,2013-07-16 02:06:00,
2013-07-15 21:12:00,79.9,63.3,30.20,ESE,116,0.0,6.4,57,0.00,,SKC,0.00,VWS V14.01,2013-07-16 02:12:00,
2013-07-15 21:17:00,79.7,63.6,30.20,ESE,114,0.0,0.0,58,0.00,,SKC,0.00,VWS V14.01,2013-07-16 02:17:00,
2013-07-15 21:20:00,79.2,64.1,30.20,SE,126,0.0,4.8,60,0.00,,SKC,0.00,VWS V14.01,2013-07-16 02:20:00,
2013-07-15 21:23:00,79.5,64.0,30.20,SSE,156,0.0,5.6,59,0.00,,SKC,0.00,VWS V14.01,2013-07-16 02:23:00,
2013-07-15 21:25:00,79.2,64.6,30.20,ESE,119,4.0,4.0,61,0.00,,SKC,0.00,VWS V14.01,2013-07-16 02:25:00,
2013-07-15 21:27:00,79.0,64.4,30.23,SE,131,0.0,4.0,61,0.00,,SKC,0.00,VWS V14.01,2013-07-16 02:27:00,
2013-07-15 21:28:00,79.3,64.3,30.20,ESE,122,0.0,4.8,60,0.00,,SKC,0.00,VWS V14.01,2013-07-16 02:28:00,
2013-07-15 21:33:00,79.2,64.6,30.20,ESE,119,0.0,6.4,61,0.00,,SKC,0.00,VWS V14.01,2013-07-16 02:33:00,
2013-07-15 21:35:00,78.6,64.1,30.23,ESE,123,0.0,4.0,61,0.00,,SKC,0.00,VWS V14.01,2013-07-16 02:35:00,
2013-07-15 21:39:00,79.0,64.4,30.23,SE,124,0.0,0.0,61,0.00,,SKC,0.00,VWS V14.01,2013-07-16 02:39:00,
2013-07-15 21:44:00,78.8,64.7,30.23,SE,124,0.0,5.6,62,0.00,,SKC,0.00,VWS V14.01,2013-07-16 02:44:00,
2013-07-15 21:45:00,78.3,63.7,30.23,SE,128,0.0,0.0,61,0.00,,SKC,0.00,VWS V14.01,2013-07-16 02:45:00,
2013-07-15 21:48:00,78.3,63.2,30.23,SE,128,0.0,0.0,60,0.00,,SKC,0.00,VWS V14.01,2013-07-16 02:48:00,
2013-07-15 21:50:00,78.4,63.9,30.23,ESE,123,0.0,0.0,61,0.00,,SKC,0.00,VWS V14.01,2013-07-16 02:50:00,
2013-07-15 21:56:00,78.3,63.7,30.23,SE,128,0.0,0.0,61,0.00,,SKC,0.00,VWS V14.01,2013-07-16 02:56:00,
2013-07-15 21:57:00,78.1,63.1,30.23,East,80,0.0,0.0,60,0.00,,SKC,0.00,VWS V14.01,2013-07-16 02:57:00,
2013-07-15 21:58:00,78.3,62.8,30.23,East,83,0.0,0.0,59,0.00,,SKC,0.00,VWS V14.01,2013-07-16 02:58:00,
2013-07-15 21:59:00,78.1,62.6,30.23,East,81,0.0,4.0,59,0.00,,SKC,0.00,VWS V14.01,2013-07-16 02:59:00,
2013-07-15 22:00:00,78.1,62.6,30.23,East,97,0.0,0.0,59,0.00,,SKC,0.00,VWS V14.01,2013-07-16 03:00:00,
2013-07-15 22:01:00,78.3,63.2,30.23,East,84,0.0,0.0,60,0.00,,SKC,0.00,VWS V14.01,2013-07-16 03:01:00,
2013-07-15 22:03:00,78.1,62.6,30.23,SE,125,0.0,0.0,59,0.00,,SKC,0.00,VWS V14.01,2013-07-16 03:03:00,
2013-07-15 22:04:00,77.9,62.4,30.23,SE,124,0.0,5.6,59,0.00,,SKC,0.00,VWS V14.01,2013-07-16 03:04:00,
2013-07-15 22:06:00,78.3,63.2,30.23,East,80,0.0,5.6,60,0.00,,SKC,0.00,VWS V14.01,2013-07-16 03:06:00,
2013-07-15 22:07:00,77.9,62.9,30.23,SE,124,0.0,0.0,60,0.00,,SKC,0.00,VWS V14.01,2013-07-16 03:07:00,
2013-07-15 22:10:00,77.7,62.7,30.23,East,99,0.0,0.0,60,0.00,,SKC,0.00,VWS V14.01,2013-07-16 03:10:00,
2013-07-15 22:11:00,78.1,62.6,30.23,SE,125,4.0,4.0,59,0.00,,SKC,0.00,VWS V14.01,2013-07-16 03:11:00,
2013-07-15 22:18:00,77.9,62.9,30.23,ESE,117,6.4,6.4,60,0.00,,SKC,0.00,VWS V14.01,2013-07-16 03:18:00,
2013-07-15 22:24:00,77.7,62.7,30.23,East,90,4.8,5.6,60,0.00,,SKC,0.00,VWS V14.01,2013-07-16 03:24:00,
2013-07-15 22:29:00,77.7,62.7,30.23,SE,127,0.0,4.8,60,0.00,,SKC,0.00,VWS V14.01,2013-07-16 03:29:00,
2013-07-15 22:35:00,77.7,62.7,30.23,SSE,163,0.0,6.4,60,0.00,,SKC,0.00,VWS V14.01,2013-07-16 03:35:00,
2013-07-15 22:40:00,77.5,63.0,30.23,SE,146,0.0,0.0,61,0.00,,SKC,0.00,VWS V14.01,2013-07-16 03:40:00,
2013-07-15 22:45:00,77.4,62.9,30.23,East,92,0.0,4.8,61,0.00,,SKC,0.00,VWS V14.01,2013-07-16 03:45:00,
2013-07-15 22:50:00,77.2,63.2,30.23,SE,135,0.0,4.0,62,0.00,,SKC,0.00,VWS V14.01,2013-07-16 03:50:00,
2013-07-15 22:55:00,77.0,63.0,30.23,SE,126,0.0,0.0,62,0.00,,SKC,0.00,VWS V14.01,2013-07-16 03:55:00,
2013-07-15 23:00:00,76.8,63.3,30.23,SE,124,0.0,0.0,63,0.00,,SKC,0.00,VWS V14.01,2013-07-16 04:00:00,
2013-07-15 23:01:00,76.8,63.3,30.23,SE,124,0.0,0.0,63,0.00,,SKC,0.00,VWS V14.01,2013-07-16 04:01:00,
2013-07-15 23:02:00,76.8,63.3,30.23,ESE,115,4.0,4.0,63,0.00,,SKC,0.00,VWS V14.01,2013-07-16 04:02:00,
2013-07-15 23:04:00,76.8,63.3,30.23,ESE,115,0.0,0.0,63,0.00,,SKC,0.00,VWS V14.01,2013-07-16 04:04:00,
2013-07-15 23:08:00,76.6,63.6,30.23,ESE,115,0.0,0.0,64,0.00,,SKC,0.00,VWS V14.01,2013-07-16 04:08:00,
2013-07-15 23:10:00,76.6,63.6,30.23,ESE,115,0.0,0.0,64,0.00,,SKC,0.00,VWS V14.01,2013-07-16 04:10:00,
2013-07-15 23:15:00,76.5,63.8,30.23,SSE,158,0.0,0.0,65,0.00,,SKC,0.00,VWS V14.01,2013-07-16 04:15:00,
2013-07-15 23:20:00,76.5,63.8,30.23,SSE,158,0.0,0.0,65,0.00,,SKC,0.00,VWS V14.01,2013-07-16 04:20:00,
2013-07-15 23:25:00,76.3,63.7,30.23,SSE,158,0.0,0.0,65,0.00,,SKC,0.00,VWS V14.01,2013-07-16 04:25:00,
2013-07-15 23:30:00,76.1,63.9,30.23,SSE,158,0.0,0.0,66,0.00,,SKC,0.00,VWS V14.01,2013-07-16 04:30:00,
2013-07-15 23:34:00,75.6,64.3,30.23,SE,128,0.0,0.0,68,0.00,,SKC,0.00,VWS V14.01,2013-07-16 04:34:00,
2013-07-15 23:35:00,75.9,64.2,30.23,SSE,158,0.0,0.0,67,0.00,,SKC,0.00,VWS V14.01,2013-07-16 04:35:00,
2013-07-15 23:37:00,75.6,64.3,30.23,ESE,120,4.8,4.8,68,0.00,,SKC,0.00,VWS V14.01,2013-07-16 04:37:00,
2013-07-15 23:40:00,75.7,64.0,30.23,SE,135,0.0,0.0,67,0.00,,SKC,0.00,VWS V14.01,2013-07-16 04:40:00,
2013-07-15 23:41:00,75.4,64.1,30.23,ESE,120,0.0,0.0,68,0.00,,SKC,0.00,VWS V14.01,2013-07-16 04:41:00,
2013-07-15 23:42:00,75.4,64.1,30.23,ESE,120,0.0,0.0,68,0.00,,SKC,0.00,VWS V14.01,2013-07-16 04:42:00,
2013-07-15 23:44:00,75.4,64.5,30.23,ESE,120,0.0,0.0,69,0.00,,SKC,0.00,VWS V14.01,2013-07-16 04:44:00,
2013-07-15 23:45:00,75.6,64.3,30.23,ESE,120,0.0,0.0,68,0.00,,SKC,0.00,VWS V14.01,2013-07-16 04:45:00,
2013-07-15 23:46:00,75.4,64.5,30.23,SE,130,0.0,0.0,69,0.00,,SKC,0.00,VWS V14.01,2013-07-16 04:46:00,
2013-07-15 23:47:00,75.4,64.5,30.23,ESE,117,0.0,5.6,69,0.00,,SKC,0.00,VWS V14.01,2013-07-16 04:47:00,
2013-07-15 23:48:00,75.4,64.5,30.23,ESE,122,0.0,4.8,69,0.00,,SKC,0.00,VWS V14.01,2013-07-16 04:48:00,
2013-07-15 23:49:00,75.2,64.3,30.23,SSE,147,4.8,4.8,69,0.00,,SKC,0.00,VWS V14.01,2013-07-16 04:49:00,
2013-07-15 23:50:00,75.4,64.1,30.23,ESE,120,0.0,0.0,68,0.00,,SKC,0.00,VWS V14.01,2013-07-16 04:50:00,
2013-07-15 23:51:00,75.2,64.3,30.23,SE,139,0.0,4.8,69,0.00,,SKC,0.00,VWS V14.01,2013-07-16 04:51:00,
2013-07-15 23:52:00,75.4,64.5,30.23,SE,132,5.6,5.6,69,0.00,,SKC,0.00,VWS V14.01,2013-07-16 04:52:00,
2013-07-15 23:53:00,75.4,64.9,30.23,East,91,0.0,5.6,70,0.00,,SKC,0.00,VWS V14.01,2013-07-16 04:53:00,
2013-07-15 23:54:00,75.4,64.9,30.23,East,91,0.0,0.0,70,0.00,,SKC,0.00,VWS V14.01,2013-07-16 04:54:00,
2013-07-15 23:55:00,75.4,64.9,30.23,East,91,0.0,0.0,70,0.00,,SKC,0.00,VWS V14.01,2013-07-16 04:55:00,
2013-07-15 23:56:00,75.4,64.9,30.23,East,93,0.0,0.0,70,0.00,,SKC,0.00,VWS V14.01,2013-07-16 04:56:00,
2013-07-15 23:57:00,75.4,64.9,30.23,East,93,0.0,0.0,70,0.00,,SKC,0.00,VWS V14.01,2013-07-16 04:57:00,
2013-07-15 23:58:00,75.4,64.9,30.23,ESE,106,6.4,6.4,70,0.00,,SKC,0.00,VWS V14.01,2013-07-16 04:58:00,
2013-07-15 23:59:00,75.6,64.7,30.23,SE,138,4.8,9.7,69,0.00,,SKC,0.00,VWS V14.01,2013-07-16 04:59:00,